Location: Doschendorf
(50.0069°N, 11.0602°E)
Time: 13:37:03
(UTC+00:00)

NOAA 12 - Pass Details

Date: 26 February 2020
Orbit: 795 x 815 km, 98.5° (Epoch: 08 April)

Event Time Altitude Azimuth Distance (km) Brightness Sun altitude
Rises 17:57:17 0° 199° (SSW) 3,314 7.5 -11.3°
Reaches altitude 10° 17:59:59 10° 211° (SSW) 2,391 7.0 -11.7°
Maximum altitude 18:04:22 26° 268° (W) 1,552 6.6 -12.4°
Drops below altitude 10° 18:08:48 10° 324° (NW) 2,415 7.1 -13.1°
Sets 18:11:33 0° 337° (NNW) 3,354 7.7 -13.5°
